Location: Newark
(47.5833°N, 8.1500°E)
Time: 01:49:48
(UTC+00:00)

Transit 2A - Pass Details

Date: 31 October 2020
Orbit: 594 x 964 km, 66.7° (Epoch: 25 November)

Event Time Altitude Azimuth Distance (km) Brightness Sun altitude
Rises 01:35:49 0° 250° (WSW) 3,644 - -45.1°
Reaches altitude 10° 01:38:43 10° 260° (W) 2,699 - -44.7°
Maximum altitude 01:44:16 31° 321° (NW) 1,608 - -44.0°
Exits shadow 01:48:43 14° 17° (NNE) 2,334 8.8 -43.3°
Drops below altitude 10° 01:49:39 10° 22° (NNE) 2,607 9.2 -43.2°
Sets 01:52:26 0° 33° (NNE) 3,502 10.1 -42.8°
